Time,TemperatureF,DewpointF,PressureIn,WindDirection,WindDirectionDegrees,WindSpeedMPH,WindSpeedGustMPH,Humidity,HourlyPrecipIn,Conditions,Clouds,dailyrainin,SoftwareType,DateUTC
2013-07-10 00:00:00,76.4,70.0,29.99,SW,217,0.0,0.0,81,0.00,,,0.00,oem by Ross Wheeler,2013-07-10 04:00:00,
2013-07-10 00:05:00,76.4,70.0,29.99,SSW,213,0.0,0.0,81,0.00,,,0.00,oem by Ross Wheeler,2013-07-10 04:05:00,
2013-07-10 00:10:00,76.4,70.0,29.99,SW,217,2.0,0.0,81,0.00,,,0.00,oem by Ross Wheeler,2013-07-10 04:10:00,
2013-07-10 00:15:00,76.4,70.0,29.99,SSW,207,5.0,0.0,81,0.00,,,0.00,oem by Ross Wheeler,2013-07-10 04:15:00,
2013-07-10 00:25:00,76.6,71.0,29.99,SSW,193,0.0,0.0,83,0.00,,,0.01,oem by Ross Wheeler,2013-07-10 04:25:00,
2013-07-10 00:30:00,76.4,71.0,29.99,SSE,164,1.0,0.0,84,0.00,,,0.02,oem by Ross Wheeler,2013-07-10 04:30:00,
2013-07-10 00:40:00,75.5,71.0,29.99,SSE,161,2.0,0.0,86,0.00,,,0.03,oem by Ross Wheeler,2013-07-10 04:40:00,
2013-07-10 00:45:00,75.2,71.0,29.99,SSE,158,0.0,0.0,87,0.00,,,0.05,oem by Ross Wheeler,2013-07-10 04:45:00,
2013-07-10 00:55:00,74.5,71.0,29.98,SSE,154,0.0,0.0,89,0.00,,,0.05,oem by Ross Wheeler,2013-07-10 04:55:00,
2013-07-10 01:00:00,74.3,71.0,29.98,SSE,154,0.0,0.0,90,0.00,,,0.05,oem by Ross Wheeler,2013-07-10 05:00:00,
2013-07-10 01:10:00,73.9,71.0,29.97,SSE,154,0.0,0.0,91,0.00,,,0.05,oem by Ross Wheeler,2013-07-10 05:10:00,
2013-07-10 01:15:00,73.8,71.0,29.97,SSE,154,0.0,0.0,91,0.00,,,0.05,oem by Ross Wheeler,2013-07-10 05:15:00,
2013-07-10 01:20:00,73.8,71.0,29.97,SSE,154,0.0,0.0,91,0.00,,,0.05,oem by Ross Wheeler,2013-07-10 05:20:00,
2013-07-10 01:25:00,73.6,71.0,29.97,SSE,154,0.0,0.0,91,0.00,,,0.05,oem by Ross Wheeler,2013-07-10 05:25:00,
2013-07-10 01:30:00,73.6,71.0,29.96,SSE,154,0.0,0.0,92,0.00,,,0.05,oem by Ross Wheeler,2013-07-10 05:30:00,
2013-07-10 01:40:00,73.4,71.0,29.96,SSE,154,0.0,0.0,92,0.00,,,0.05,oem by Ross Wheeler,2013-07-10 05:40:00,
2013-07-10 01:45:00,73.2,71.0,29.96,SSE,154,0.0,0.0,92,0.00,,,0.05,oem by Ross Wheeler,2013-07-10 05:45:00,
2013-07-10 01:55:00,73.2,71.0,29.96,SSE,154,0.0,0.0,92,0.00,,,0.05,oem by Ross Wheeler,2013-07-10 05:55:00,
2013-07-10 02:01:00,73.2,71.0,29.96,SSE,154,0.0,0.0,92,0.00,,,0.05,oem by Ross Wheeler,2013-07-10 06:01:00,
2013-07-10 02:10:00,73.2,71.0,29.96,SSE,154,0.0,0.0,93,0.00,,,0.05,oem by Ross Wheeler,2013-07-10 06:10:00,
2013-07-10 02:15:00,73.2,71.0,29.95,SE,134,0.0,0.0,93,0.00,,,0.05,oem by Ross Wheeler,2013-07-10 06:15:00,
2013-07-10 02:25:00,73.1,71.0,29.95,SE,134,0.0,0.0,93,0.00,,,0.05,oem by Ross Wheeler,2013-07-10 06:25:00,
2013-07-10 02:30:00,73.1,71.0,29.95,SE,134,0.0,0.0,93,0.00,,,0.05,oem by Ross Wheeler,2013-07-10 06:30:00,
2013-07-10 02:40:00,73.1,71.0,29.95,SE,134,0.0,0.0,93,0.00,,,0.05,oem by Ross Wheeler,2013-07-10 06:40:00,
2013-07-10 02:45:00,73.1,71.0,29.94,SE,134,0.0,0.0,94,0.00,,,0.05,oem by Ross Wheeler,2013-07-10 06:45:00,
2013-07-10 02:55:00,73.2,71.0,29.94,SE,134,0.0,0.0,94,0.00,,,0.05,oem by Ross Wheeler,2013-07-10 06:55:00,
2013-07-10 03:00:00,73.2,71.0,29.93,SE,134,0.0,0.0,94,0.00,,,0.05,oem by Ross Wheeler,2013-07-10 07:00:00,
2013-07-10 03:10:00,73.4,72.0,29.93,SE,134,0.0,0.0,94,0.00,,,0.05,oem by Ross Wheeler,2013-07-10 07:10:00,
2013-07-10 03:15:00,73.4,72.0,29.93,SE,134,0.0,0.0,94,0.00,,,0.05,oem by Ross Wheeler,2013-07-10 07:15:00,
2013-07-10 03:25:00,73.2,71.0,29.93,SE,134,0.0,0.0,94,0.00,,,0.05,oem by Ross Wheeler,2013-07-10 07:25:00,
2013-07-10 03:30:00,73.2,71.0,29.94,SE,134,0.0,0.0,94,0.00,,,0.05,oem by Ross Wheeler,2013-07-10 07:30:00,
2013-07-10 03:40:00,73.2,72.0,29.94,SE,134,0.0,0.0,95,0.00,,,0.05,oem by Ross Wheeler,2013-07-10 07:40:00,
2013-07-10 03:45:00,73.2,72.0,29.93,SE,134,0.0,0.0,95,0.00,,,0.05,oem by Ross Wheeler,2013-07-10 07:45:00,
2013-07-10 03:55:00,73.2,72.0,29.93,SE,134,0.0,0.0,95,0.00,,,0.05,oem by Ross Wheeler,2013-07-10 07:55:00,
2013-07-10 04:00:00,73.1,72.0,29.93,SE,134,0.0,0.0,95,0.00,,,0.05,oem by Ross Wheeler,2013-07-10 08:00:00,
2013-07-10 04:10:00,73.1,71.0,29.93,SE,134,0.0,0.0,94,0.00,,,0.05,oem by Ross Wheeler,2013-07-10 08:10:00,
2013-07-10 04:15:00,72.9,71.0,29.93,SE,138,0.0,0.0,94,0.00,,,0.05,oem by Ross Wheeler,2013-07-10 08:15:00,
2013-07-10 04:25:00,72.7,71.0,29.93,SE,138,0.0,0.0,94,0.00,,,0.05,oem by Ross Wheeler,2013-07-10 08:25:00,
2013-07-10 04:30:00,72.7,71.0,29.92,SE,138,0.0,0.0,94,0.00,,,0.05,oem by Ross Wheeler,2013-07-10 08:30:00,
2013-07-10 04:40:00,72.5,71.0,29.92,SE,138,0.0,0.0,94,0.00,,,0.05,oem by Ross Wheeler,2013-07-10 08:40:00,
2013-07-10 04:45:00,72.5,71.0,29.93,SE,138,0.0,0.0,94,0.00,,,0.05,oem by Ross Wheeler,2013-07-10 08:45:00,
2013-07-10 04:55:00,72.4,71.0,29.93,SE,138,0.0,0.0,94,0.00,,,0.05,oem by Ross Wheeler,2013-07-10 08:55:00,
2013-07-10 05:00:00,72.4,71.0,29.93,SE,138,0.0,0.0,94,0.00,,,0.05,oem by Ross Wheeler,2013-07-10 09:00:00,
2013-07-10 05:10:00,72.4,71.0,29.93,SE,138,0.0,0.0,94,0.00,,,0.05,oem by Ross Wheeler,2013-07-10 09:10:00,
2013-07-10 05:15:00,72.2,70.0,29.93,SE,138,0.0,0.0,94,0.00,,,0.05,oem by Ross Wheeler,2013-07-10 09:15:00,
2013-07-10 05:25:00,72.2,70.0,29.93,SE,138,0.0,0.0,94,0.00,,,0.05,oem by Ross Wheeler,2013-07-10 09:25:00,
2013-07-10 05:30:00,72.2,70.0,29.93,SE,138,0.0,0.0,94,0.00,,,0.05,oem by Ross Wheeler,2013-07-10 09:30:00,
2013-07-10 05:40:00,72.2,71.0,29.93,SE,138,0.0,0.0,95,0.00,,,0.05,oem by Ross Wheeler,2013-07-10 09:40:00,
2013-07-10 05:45:00,72.2,70.0,29.93,SE,138,0.0,0.0,94,0.00,,,0.05,oem by Ross Wheeler,2013-07-10 09:45:00,
2013-07-10 05:55:00,72.2,71.0,29.93,SE,138,0.0,0.0,95,0.00,,,0.05,oem by Ross Wheeler,2013-07-10 09:55:00,
2013-07-10 06:00:00,72.2,71.0,29.93,SE,138,0.0,0.0,95,0.00,,,0.05,oem by Ross Wheeler,2013-07-10 10:00:00,
2013-07-10 06:10:00,72.4,71.0,29.93,SE,138,0.0,0.0,95,0.00,,,0.05,oem by Ross Wheeler,2013-07-10 10:10:00,
2013-07-10 06:15:00,72.4,71.0,29.93,SE,138,0.0,0.0,95,0.00,,,0.05,oem by Ross Wheeler,2013-07-10 10:15:00,
2013-07-10 06:25:00,72.4,71.0,29.93,SE,138,0.0,0.0,95,0.00,,,0.05,oem by Ross Wheeler,2013-07-10 10:25:00,
2013-07-10 06:30:00,72.4,71.0,29.93,SE,138,0.0,0.0,95,0.00,,,0.05,oem by Ross Wheeler,2013-07-10 10:30:00,
2013-07-10 06:40:00,72.5,71.0,29.93,SE,138,0.0,0.0,95,0.00,,,0.05,oem by Ross Wheeler,2013-07-10 10:40:00,
2013-07-10 06:45:00,72.5,71.0,29.93,SE,138,0.0,0.0,95,0.00,,,0.05,oem by Ross Wheeler,2013-07-10 10:45:00,
2013-07-10 06:55:00,72.9,71.0,29.93,SW,215,5.0,0.0,95,0.00,,,0.05,oem by Ross Wheeler,2013-07-10 10:55:00,
2013-07-10 07:00:00,73.1,72.0,29.93,SSW,213,2.0,0.0,95,0.00,,,0.05,oem by Ross Wheeler,2013-07-10 11:00:00,
2013-07-10 07:10:00,73.1,72.0,29.93,SSW,213,0.0,0.0,95,0.00,,,0.05,oem by Ross Wheeler,2013-07-10 11:10:00,
2013-07-10 07:15:00,73.2,72.0,29.93,SW,216,4.0,0.0,95,0.00,,,0.05,oem by Ross Wheeler,2013-07-10 11:15:00,
2013-07-10 07:25:00,73.6,72.0,29.93,SW,229,1.0,0.0,95,0.00,,,0.05,oem by Ross Wheeler,2013-07-10 11:25:00,
2013-07-10 07:30:00,73.6,72.0,29.93,SW,219,0.0,0.0,95,0.00,,,0.05,oem by Ross Wheeler,2013-07-10 11:30:00,
2013-07-10 07:40:00,73.9,72.0,29.93,SSW,212,0.0,0.0,95,0.00,,,0.05,oem by Ross Wheeler,2013-07-10 11:40:00,
2013-07-10 07:45:00,74.1,73.0,29.93,SW,219,5.0,0.0,95,0.00,,,0.05,oem by Ross Wheeler,2013-07-10 11:45:00,
2013-07-10 07:55:00,74.6,73.0,29.93,SW,217,0.0,0.0,94,0.00,,,0.05,oem by Ross Wheeler,2013-07-10 11:55:00,
2013-07-10 08:00:00,74.8,73.0,29.92,SW,215,1.0,0.0,94,0.00,,,0.05,oem by Ross Wheeler,2013-07-10 12:00:00,
2013-07-10 08:10:00,75.0,73.0,29.92,SSW,199,0.0,0.0,93,0.00,,,0.05,oem by Ross Wheeler,2013-07-10 12:10:00,
2013-07-10 08:15:00,75.2,73.0,29.92,SSW,212,0.0,0.0,93,0.00,,,0.05,oem by Ross Wheeler,2013-07-10 12:15:00,
2013-07-10 08:25:00,75.5,73.0,29.92,SSW,202,0.0,0.0,93,0.00,,,0.05,oem by Ross Wheeler,2013-07-10 12:25:00,
2013-07-10 08:30:00,75.7,74.0,29.91,SSW,202,0.0,0.0,93,0.00,,,0.05,oem by Ross Wheeler,2013-07-10 12:30:00,
2013-07-10 08:40:00,76.0,74.0,29.91,SW,236,1.0,0.0,92,0.00,,,0.05,oem by Ross Wheeler,2013-07-10 12:40:00,
2013-07-10 08:45:00,76.2,74.0,29.91,South,189,0.0,0.0,92,0.00,,,0.05,oem by Ross Wheeler,2013-07-10 12:45:00,
2013-07-10 08:55:00,76.6,74.0,29.91,SW,223,0.0,0.0,91,0.00,,,0.05,oem by Ross Wheeler,2013-07-10 12:55:00,
2013-07-10 09:00:00,76.9,74.0,29.91,SE,138,0.0,0.0,90,0.00,,,0.05,oem by Ross Wheeler,2013-07-10 13:00:00,
2013-07-10 09:10:00,77.3,74.0,29.91,SW,236,1.0,0.0,89,0.00,,,0.05,oem by Ross Wheeler,2013-07-10 13:10:00,
2013-07-10 09:15:00,77.5,74.0,29.91,SW,219,0.0,0.0,89,0.00,,,0.05,oem by Ross Wheeler,2013-07-10 13:15:00,
2013-07-10 09:25:00,77.8,74.0,29.91,SSW,203,0.0,0.0,88,0.00,,,0.05,oem by Ross Wheeler,2013-07-10 13:25:00,
2013-07-10 09:30:00,77.8,74.0,29.91,South,172,0.0,0.0,87,0.00,,,0.05,oem by Ross Wheeler,2013-07-10 13:30:00,
2013-07-10 09:40:00,78.2,74.0,29.91,SSW,193,2.0,0.0,87,0.00,,,0.05,oem by Ross Wheeler,2013-07-10 13:40:00,
2013-07-10 09:45:00,78.2,73.0,29.91,SE,127,2.0,0.0,85,0.00,,,0.05,oem by Ross Wheeler,2013-07-10 13:45:00,
2013-07-10 09:55:00,78.4,74.0,29.91,SW,231,5.0,0.0,85,0.00,,,0.05,oem by Ross Wheeler,2013-07-10 13:55:00,
2013-07-10 10:00:00,78.4,74.0,29.91,WSW,243,1.0,0.0,85,0.00,,,0.05,oem by Ross Wheeler,2013-07-10 14:00:00,
2013-07-10 10:10:00,78.8,74.0,29.91,SSW,209,4.0,0.0,84,0.00,,,0.05,oem by Ross Wheeler,2013-07-10 14:10:00,
2013-07-10 10:15:00,78.8,74.0,29.91,West,267,1.0,0.0,84,0.00,,,0.05,oem by Ross Wheeler,2013-07-10 14:15:00,
2013-07-10 10:25:00,79.3,75.0,29.91,SSW,200,4.0,0.0,85,0.00,,,0.05,oem by Ross Wheeler,2013-07-10 14:25:00,
2013-07-10 10:30:00,79.3,74.0,29.91,WNW,303,6.0,0.0,83,0.00,,,0.05,oem by Ross Wheeler,2013-07-10 14:30:00,
2013-07-10 10:40:00,79.5,74.0,29.91,SSW,202,0.0,0.0,83,0.00,,,0.05,oem by Ross Wheeler,2013-07-10 14:40:00,
2013-07-10 10:45:00,79.5,74.0,29.91,SW,220,5.0,0.0,84,0.00,,,0.05,oem by Ross Wheeler,2013-07-10 14:45:00,
2013-07-10 10:55:00,79.9,74.0,29.91,SSW,207,2.0,0.0,83,0.00,,,0.05,oem by Ross Wheeler,2013-07-10 14:55:00,
2013-07-10 11:00:00,80.1,75.0,29.90,SSW,210,1.0,0.0,83,0.00,,,0.05,oem by Ross Wheeler,2013-07-10 15:00:00,
2013-07-10 11:10:00,80.6,74.0,29.90,South,178,3.0,0.0,81,0.00,,,0.05,oem by Ross Wheeler,2013-07-10 15:10:00,
2013-07-10 11:15:00,80.6,74.0,29.90,SSW,192,0.0,0.0,80,0.00,,,0.05,oem by Ross Wheeler,2013-07-10 15:15:00,
2013-07-10 11:25:00,80.6,74.0,29.90,SSW,210,10.0,0.0,79,0.00,,,0.05,oem by Ross Wheeler,2013-07-10 15:25:00,
2013-07-10 11:30:00,80.6,74.0,29.90,SW,234,5.0,0.0,79,0.00,,,0.05,oem by Ross Wheeler,2013-07-10 15:30:00,
2013-07-10 11:40:00,81.0,74.0,29.90,SW,215,6.0,0.0,80,0.00,,,0.05,oem by Ross Wheeler,2013-07-10 15:40:00,
2013-07-10 11:45:00,81.6,75.0,29.88,SSW,209,1.0,0.0,80,0.00,,,0.05,oem by Ross Wheeler,2013-07-10 15:45:00,
2013-07-10 11:55:00,82.8,75.0,29.88,SW,229,8.0,0.0,76,0.00,,,0.05,oem by Ross Wheeler,2013-07-10 15:55:00,
2013-07-10 12:00:00,83.0,75.0,29.88,SW,215,0.0,0.0,76,0.00,,,0.05,oem by Ross Wheeler,2013-07-10 16:00:00,
2013-07-10 12:10:00,83.3,74.0,29.88,South,185,2.0,0.0,74,0.00,,,0.05,oem by Ross Wheeler,2013-07-10 16:10:00,
2013-07-10 12:15:00,84.1,75.0,29.87,WSW,239,1.0,0.0,74,0.00,,,0.05,oem by Ross Wheeler,2013-07-10 16:15:00,
2013-07-10 12:25:00,84.9,75.0,29.87,SE,131,0.0,0.0,71,0.00,,,0.05,oem by Ross Wheeler,2013-07-10 16:25:00,
2013-07-10 12:30:00,84.7,74.0,29.87,WSW,246,3.0,0.0,71,0.00,,,0.05,oem by Ross Wheeler,2013-07-10 16:30:00,
2013-07-10 12:40:00,83.7,76.0,29.87,SW,226,0.0,0.0,78,0.00,,,0.07,oem by Ross Wheeler,2013-07-10 16:40:00,
2013-07-10 12:45:00,82.6,77.0,29.87,SW,226,0.0,0.0,83,0.00,,,0.07,oem by Ross Wheeler,2013-07-10 16:45:00,
2013-07-10 12:55:00,81.0,76.0,29.87,South,179,2.0,0.0,85,0.00,,,0.08,oem by Ross Wheeler,2013-07-10 16:55:00,
2013-07-10 13:00:00,80.4,76.0,29.86,WSW,248,1.0,0.0,86,0.00,,,0.08,oem by Ross Wheeler,2013-07-10 17:00:00,
2013-07-10 13:10:00,80.4,76.0,29.86,SW,229,0.0,0.0,86,0.00,,,0.08,oem by Ross Wheeler,2013-07-10 17:10:00,
2013-07-10 13:15:00,80.8,76.0,29.86,SW,224,1.0,0.0,84,0.00,,,0.08,oem by Ross Wheeler,2013-07-10 17:15:00,
2013-07-10 13:25:00,81.0,75.0,29.86,SSE,151,5.0,0.0,82,0.00,,,0.08,oem by Ross Wheeler,2013-07-10 17:25:00,
2013-07-10 13:30:00,81.2,76.0,29.85,SW,217,3.0,0.0,83,0.00,,,0.08,oem by Ross Wheeler,2013-07-10 17:30:00,
2013-07-10 13:40:00,81.8,76.0,29.85,SSE,168,4.0,0.0,82,0.00,,,0.08,oem by Ross Wheeler,2013-07-10 17:40:00,
2013-07-10 13:45:00,82.0,75.0,29.85,SW,217,0.0,0.0,80,0.00,,,0.08,oem by Ross Wheeler,2013-07-10 17:45:00,
2013-07-10 13:55:00,82.4,75.0,29.85,SSW,212,11.0,0.0,78,0.00,,,0.08,oem by Ross Wheeler,2013-07-10 17:55:00,
2013-07-10 14:00:00,82.6,75.0,29.84,WSW,240,4.0,0.0,78,0.00,,,0.08,oem by Ross Wheeler,2013-07-10 18:00:00,
2013-07-10 14:10:00,83.0,75.0,29.84,WSW,251,4.0,0.0,77,0.00,,,0.08,oem by Ross Wheeler,2013-07-10 18:10:00,
2013-07-10 14:15:00,83.0,74.0,29.84,WSW,243,2.0,0.0,75,0.00,,,0.08,oem by Ross Wheeler,2013-07-10 18:15:00,
2013-07-10 14:25:00,83.2,73.0,29.84,WSW,251,3.0,0.0,71,0.00,,,0.08,oem by Ross Wheeler,2013-07-10 18:25:00,
2013-07-10 14:30:00,83.3,72.0,29.83,SSW,202,1.0,0.0,69,0.00,,,0.08,oem by Ross Wheeler,2013-07-10 18:30:00,
2013-07-10 14:40:00,83.7,72.0,29.83,SW,220,6.0,0.0,68,0.00,,,0.08,oem by Ross Wheeler,2013-07-10 18:40:00,
2013-07-10 14:45:00,83.9,71.0,29.83,SSW,213,5.0,0.0,65,0.00,,,0.08,oem by Ross Wheeler,2013-07-10 18:45:00,
2013-07-10 14:55:00,85.7,72.0,29.83,SW,223,3.0,0.0,64,0.00,,,0.08,oem by Ross Wheeler,2013-07-10 18:55:00,
2013-07-10 15:00:00,86.4,72.0,29.82,SW,231,2.0,0.0,62,0.00,,,0.09,oem by Ross Wheeler,2013-07-10 19:00:00,
2013-07-10 15:10:00,85.7,72.0,29.82,SSW,202,2.0,0.0,63,0.00,,,0.09,oem by Ross Wheeler,2013-07-10 19:10:00,
2013-07-10 15:15:00,85.5,72.0,29.82,SSE,168,0.0,0.0,64,0.00,,,0.09,oem by Ross Wheeler,2013-07-10 19:15:00,
2013-07-10 15:25:00,86.2,72.0,29.82,WSW,248,3.0,0.0,63,0.00,,,0.09,oem by Ross Wheeler,2013-07-10 19:25:00,
2013-07-10 15:30:00,86.4,71.0,29.82,West,281,1.0,0.0,61,0.00,,,0.09,oem by Ross Wheeler,2013-07-10 19:30:00,
2013-07-10 15:40:00,87.4,72.0,29.82,SW,223,5.0,0.0,61,0.00,,,0.09,oem by Ross Wheeler,2013-07-10 19:40:00,
2013-07-10 15:45:00,87.6,73.0,29.81,SSW,203,9.0,0.0,62,0.00,,,0.09,oem by Ross Wheeler,2013-07-10 19:45:00,
2013-07-10 15:55:00,87.8,72.0,29.81,WSW,240,5.0,0.0,59,0.00,,,0.09,oem by Ross Wheeler,2013-07-10 19:55:00,
2013-07-10 16:00:00,87.2,72.0,29.81,South,169,4.0,0.0,61,0.00,,,0.09,oem by Ross Wheeler,2013-07-10 20:00:00,
2013-07-10 16:10:00,87.8,73.0,29.81,SW,216,3.0,0.0,62,0.00,,,0.09,oem by Ross Wheeler,2013-07-10 20:10:00,
2013-07-10 16:15:00,88.2,73.0,29.80,SSW,202,3.0,0.0,61,0.00,,,0.09,oem by Ross Wheeler,2013-07-10 20:15:00,
2013-07-10 16:25:00,87.6,71.0,29.80,SW,226,2.0,0.0,59,0.00,,,0.09,oem by Ross Wheeler,2013-07-10 20:25:00,
2013-07-10 16:30:00,87.4,73.0,29.80,SSW,198,7.0,0.0,62,0.00,,,0.09,oem by Ross Wheeler,2013-07-10 20:30:00,
2013-07-10 16:40:00,87.0,70.0,29.80,West,267,5.0,0.0,58,0.00,,,0.09,oem by Ross Wheeler,2013-07-10 20:40:00,
2013-07-10 16:45:00,87.2,71.0,29.79,SW,223,5.0,0.0,58,0.00,,,0.09,oem by Ross Wheeler,2013-07-10 20:45:00,
2013-07-10 16:55:00,87.4,70.0,29.79,SSW,212,3.0,0.0,57,0.00,,,0.09,oem by Ross Wheeler,2013-07-10 20:55:00,
2013-07-10 17:00:00,87.4,71.0,29.79,SSW,212,6.0,0.0,58,0.00,,,0.09,oem by Ross Wheeler,2013-07-10 21:00:00,
2013-07-10 17:10:00,87.8,71.0,29.79,SSW,202,2.0,0.0,57,0.00,,,0.09,oem by Ross Wheeler,2013-07-10 21:10:00,
2013-07-10 17:15:00,88.0,71.0,29.78,WSW,257,1.0,0.0,58,0.00,,,0.09,oem by Ross Wheeler,2013-07-10 21:15:00,
2013-07-10 17:25:00,88.5,72.0,29.78,SSW,202,7.0,0.0,58,0.00,,,0.09,oem by Ross Wheeler,2013-07-10 21:25:00,
2013-07-10 17:30:00,88.2,72.0,29.77,SW,222,5.0,0.0,58,0.00,,,0.09,oem by Ross Wheeler,2013-07-10 21:30:00,
2013-07-10 17:40:00,87.8,71.0,29.77,SW,229,6.0,0.0,58,0.00,,,0.09,oem by Ross Wheeler,2013-07-10 21:40:00,
2013-07-10 17:45:00,87.4,70.0,29.77,SSW,202,11.0,0.0,57,0.00,,,0.09,oem by Ross Wheeler,2013-07-10 21:45:00,
2013-07-10 17:55:00,86.8,71.0,29.77,SSW,200,1.0,0.0,59,0.00,,,0.09,oem by Ross Wheeler,2013-07-10 21:55:00,
2013-07-10 18:00:00,87.0,70.0,29.77,South,172,3.0,0.0,57,0.00,,,0.09,oem by Ross Wheeler,2013-07-10 22:00:00,
2013-07-10 18:10:00,87.0,70.0,29.77,WSW,248,0.0,0.0,57,0.00,,,0.09,oem by Ross Wheeler,2013-07-10 22:10:00,
2013-07-10 18:15:00,87.0,70.0,29.77,SW,216,2.0,0.0,58,0.00,,,0.09,oem by Ross Wheeler,2013-07-10 22:15:00,
2013-07-10 18:25:00,86.8,70.0,29.77,WNW,291,7.0,0.0,57,0.00,,,0.09,oem by Ross Wheeler,2013-07-10 22:25:00,
2013-07-10 18:30:00,86.6,70.0,29.79,SSW,206,6.0,0.0,57,0.00,,,0.09,oem by Ross Wheeler,2013-07-10 22:30:00,
2013-07-10 18:40:00,86.4,70.0,29.79,SSW,213,6.0,0.0,58,0.00,,,0.09,oem by Ross Wheeler,2013-07-10 22:40:00,
2013-07-10 18:45:00,86.2,70.0,29.79,South,189,8.0,0.0,58,0.00,,,0.09,oem by Ross Wheeler,2013-07-10 22:45:00,
2013-07-10 18:55:00,85.9,70.0,29.79,SW,222,2.0,0.0,59,0.00,,,0.09,oem by Ross Wheeler,2013-07-10 22:55:00,
2013-07-10 19:00:00,85.9,70.0,29.80,SSW,205,7.0,0.0,60,0.00,,,0.09,oem by Ross Wheeler,2013-07-10 23:00:00,
2013-07-10 19:10:00,85.7,71.0,29.80,SSW,200,3.0,0.0,61,0.00,,,0.09,oem by Ross Wheeler,2013-07-10 23:10:00,
2013-07-10 19:15:00,85.7,71.0,29.80,South,178,2.0,0.0,62,0.00,,,0.09,oem by Ross Wheeler,2013-07-10 23:15:00,
2013-07-10 19:25:00,85.3,71.0,29.80,SSW,205,7.0,0.0,62,0.00,,,0.09,oem by Ross Wheeler,2013-07-10 23:25:00,
2013-07-10 19:30:00,85.3,71.0,29.80,SW,223,6.0,0.0,62,0.00,,,0.09,oem by Ross Wheeler,2013-07-10 23:30:00,
2013-07-10 19:40:00,85.1,71.0,29.80,SW,226,8.0,0.0,63,0.00,,,0.09,oem by Ross Wheeler,2013-07-10 23:40:00,
2013-07-10 19:45:00,84.9,71.0,29.80,SSW,199,2.0,0.0,64,0.00,,,0.09,oem by Ross Wheeler,2013-07-10 23:45:00,
2013-07-10 19:55:00,84.7,71.0,29.80,SW,222,2.0,0.0,64,0.00,,,0.09,oem by Ross Wheeler,2013-07-10 23:55:00,
2013-07-10 20:00:00,84.5,71.0,29.81,SW,216,2.0,0.0,65,0.00,,,0.09,oem by Ross Wheeler,2013-07-11 00:00:00,
2013-07-10 20:10:00,84.1,71.0,29.81,SW,236,3.0,0.0,65,0.00,,,0.09,oem by Ross Wheeler,2013-07-11 00:10:00,
2013-07-10 20:15:00,84.1,71.0,29.80,SSW,207,4.0,0.0,65,0.00,,,0.09,oem by Ross Wheeler,2013-07-11 00:15:00,
2013-07-10 20:25:00,83.9,71.0,29.80,SW,224,1.0,0.0,65,0.00,,,0.09,oem by Ross Wheeler,2013-07-11 00:25:00,
2013-07-10 20:30:00,83.9,71.0,29.80,WSW,241,3.0,0.0,66,0.00,,,0.09,oem by Ross Wheeler,2013-07-11 00:30:00,
2013-07-10 20:40:00,83.5,71.0,29.80,SW,220,6.0,0.0,66,0.00,,,0.09,oem by Ross Wheeler,2013-07-11 00:40:00,
2013-07-10 20:45:00,83.5,71.0,29.80,SSW,203,3.0,0.0,66,0.00,,,0.09,oem by Ross Wheeler,2013-07-11 00:45:00,
2013-07-10 20:55:00,83.3,71.0,29.80,SSW,202,1.0,0.0,67,0.00,,,0.09,oem by Ross Wheeler,2013-07-11 00:55:00,
2013-07-10 21:00:00,83.2,71.0,29.80,SSW,213,3.0,0.0,67,0.00,,,0.09,oem by Ross Wheeler,2013-07-11 01:00:00,
2013-07-10 21:10:00,83.0,71.0,29.80,SSW,195,0.0,0.0,67,0.00,,,0.09,oem by Ross Wheeler,2013-07-11 01:10:00,
2013-07-10 21:15:00,83.0,71.0,29.81,SW,219,3.0,0.0,68,0.00,,,0.09,oem by Ross Wheeler,2013-07-11 01:15:00,
2013-07-10 21:25:00,82.8,72.0,29.81,West,260,2.0,0.0,69,0.00,,,0.09,oem by Ross Wheeler,2013-07-11 01:25:00,
2013-07-10 21:30:00,82.6,71.0,29.81,SSW,198,2.0,0.0,69,0.00,,,0.09,oem by Ross Wheeler,2013-07-11 01:30:00,
2013-07-10 21:40:00,82.6,71.0,29.81,SSW,206,2.0,0.0,68,0.00,,,0.09,oem by Ross Wheeler,2013-07-11 01:40:00,
2013-07-10 21:45:00,82.4,71.0,29.82,SSW,199,1.0,0.0,69,0.00,,,0.09,oem by Ross Wheeler,2013-07-11 01:45:00,
2013-07-10 21:55:00,82.4,71.0,29.82,SSW,212,1.0,0.0,69,0.00,,,0.09,oem by Ross Wheeler,2013-07-11 01:55:00,
2013-07-10 22:00:00,82.2,71.0,29.82,SW,217,0.0,0.0,69,0.00,,,0.09,oem by Ross Wheeler,2013-07-11 02:00:00,
2013-07-10 22:10:00,82.0,71.0,29.82,SW,219,2.0,0.0,70,0.00,,,0.09,oem by Ross Wheeler,2013-07-11 02:10:00,
2013-07-10 22:15:00,82.0,71.0,29.81,SW,223,1.0,0.0,70,0.00,,,0.09,oem by Ross Wheeler,2013-07-11 02:15:00,
2013-07-10 22:25:00,81.6,71.0,29.81,SW,222,0.0,0.0,71,0.00,,,0.09,oem by Ross Wheeler,2013-07-11 02:25:00,
2013-07-10 22:30:00,81.6,72.0,29.81,SW,220,0.0,0.0,72,0.00,,,0.09,oem by Ross Wheeler,2013-07-11 02:30:00,
2013-07-10 22:40:00,81.4,72.0,29.81,SW,219,0.0,0.0,73,0.00,,,0.09,oem by Ross Wheeler,2013-07-11 02:40:00,
2013-07-10 22:45:00,81.2,72.0,29.81,SSW,207,0.0,0.0,73,0.00,,,0.09,oem by Ross Wheeler,2013-07-11 02:45:00,
2013-07-10 22:55:00,81.0,72.0,29.81,SW,216,1.0,0.0,74,0.00,,,0.09,oem by Ross Wheeler,2013-07-11 02:55:00,
2013-07-10 23:00:00,81.0,72.0,29.80,SSW,202,5.0,0.0,74,0.00,,,0.09,oem by Ross Wheeler,2013-07-11 03:00:00,
2013-07-10 23:10:00,81.0,72.0,29.80,SSW,206,2.0,0.0,74,0.00,,,0.09,oem by Ross Wheeler,2013-07-11 03:10:00,
2013-07-10 23:15:00,81.0,72.0,29.80,WSW,241,2.0,0.0,74,0.00,,,0.09,oem by Ross Wheeler,2013-07-11 03:15:00,
2013-07-10 23:25:00,81.0,72.0,29.80,SSW,196,1.0,0.0,74,0.00,,,0.09,oem by Ross Wheeler,2013-07-11 03:25:00,
2013-07-10 23:30:00,81.2,72.0,29.79,SW,216,2.0,0.0,73,0.00,,,0.09,oem by Ross Wheeler,2013-07-11 03:30:00,
2013-07-10 23:40:00,81.2,72.0,29.79,SW,230,2.0,0.0,73,0.00,,,0.09,oem by Ross Wheeler,2013-07-11 03:40:00,
2013-07-10 23:45:00,81.2,72.0,29.80,SSW,206,2.0,0.0,73,0.00,,,0.09,oem by Ross Wheeler,2013-07-11 03:45:00,
2013-07-10 23:55:00,81.2,72.0,29.80,SSW,203,3.0,0.0,74,0.00,,,0.09,oem by Ross Wheeler,2013-07-11 03:55:00,